Montpelier, VT

3:31 PM EST on November 13, 2019 (GMT -0500)
Knapp State

Weather History for KMPV - September, 2019

Change the Weather History Date:

Friday, September 13, 2019

  Actual Average Record
Temperature  
Mean Temperature 53 °F 59 °F  
Max Temperature 64 °F 70 °F 88 °F (1948)
Min Temperature 41 °F 47 °F 31 °F (1964)
Degree Days  
Heating Degree Days 12 7  
Month to date heating degree days 96 70  
Since 1 July heating degree days 164 178  
Cooling Degree Days 0 1  
Month to date cooling degree days 5 13  
Year to date cooling degree days 216 257  
Growing Degree Days 3 (Base 50)    
Moisture  
Dew Point 43 °F    
Average Humidity 84    
Maximum Humidity 100    
Minimum Humidity 43    
Precipitation  
Precipitation 0.00 in 0.10 in 2.16 in (1987)
Month to date precipitation 1.42 1.20  
Year to date precipitation 36.22 26.00  
Sea Level Pressure  
Sea Level Pressure 30.50 in    
Wind  
Wind Speed 3 mph ()    
Max Wind Speed 21 mph    
Max Gust Speed 27 mph    
Visibility 5.2 miles    
Events Fog    
T = Trace of Precipitation, MM = Missing Value Source: Averaged Metar Reports

Daily Weather History Graph

Daily Weather History Graph

Search for Another Location

Airport or City:

Astronomy

Sep. 13, 2019 Rise Set
Actual Time 6:26 AM EDT 7:04 PM EDT
Civil Twilight 5:57 AM EDT 7:34 PM EDT
Nautical Twilight 5:22 AM EDT 8:08 PM EDT
Astronomical Twilight 4:47 AM EDT 8:44 PM EDT
Moon 7:19 PM EDT 5:36 AM EDT
Length of Visible Light 13h 36m
Length of Day
12h 38m
Full, 100% of the Moon is Illuminated
Sep 13
Full
Sep 14
Full
Sep 21
Last Quarter
Sep 28
New
Oct 5
First Quarter

Hourly Weather History & Observations

Time (EDT) Temp. Windchill Dew Point Humidity Pressure Visibility Wind Dir Wind Speed Gust Speed Precip Events Conditions
12:51 AM 43.0 °F - 42.1 °F 97% 30.45 in 10.0 mi Calm Calm - N/A   Clear
1:51 AM 42.1 °F - 39.9 °F 92% 30.45 in 10.0 mi Calm Calm - N/A   Partly Cloudy
1:59 AM 41.0 °F - 39.9 °F 96% 30.43 in 1.5 mi Calm Calm - N/A   Scattered Clouds
2:01 AM 41.0 °F - 39.9 °F 96% 30.43 in 1.0 mi Calm Calm - N/A   Mist
2:08 AM 42.1 °F - 41.0 °F 96% 30.44 in 0.5 mi Calm Calm - N/A Fog Fog
2:51 AM 43.0 °F - 43.0 °F 100% 30.45 in 0.2 mi Calm Calm - N/A Fog Fog
3:51 AM 43.0 °F - 43.0 °F 100% 30.48 in 0.2 mi Calm Calm - N/A Fog Fog
4:51 AM 42.1 °F - 42.1 °F 100% 30.49 in 0.2 mi Calm Calm - N/A Fog Fog
5:51 AM 41.0 °F - 41.0 °F 100% 30.51 in 0.2 mi Calm Calm - N/A Fog Fog
6:51 AM 41.0 °F - 41.0 °F 100% 30.53 in 0.2 mi Calm Calm - N/A Fog Fog
7:51 AM 42.1 °F - 42.1 °F 100% 30.56 in 0.2 mi Calm Calm - N/A Fog Fog
8:51 AM 43.0 °F - 43.0 °F 100% 30.58 in 1.5 mi Calm Calm - N/A   Overcast
8:59 AM 44.1 °F 42.5 °F 44.1 °F 100% 30.55 in 1.0 mi NE 3.5 mph - N/A   Overcast
9:06 AM 44.1 °F - 44.1 °F 100% 30.56 in 1.5 mi Calm Calm - N/A   Overcast
9:11 AM 44.1 °F 42.5 °F 44.1 °F 100% 30.56 in 3.0 mi East 3.5 mph - N/A   Overcast
9:17 AM 44.1 °F 41.5 °F 44.1 °F 100% 30.55 in 1.8 mi East 4.6 mph - N/A   Overcast
9:19 AM 44.1 °F 42.5 °F 44.1 °F 100% 30.55 in 1.0 mi East 3.5 mph - N/A   Overcast
9:26 AM 45.0 °F - 45.0 °F 100% 30.55 in 0.5 mi Calm Calm - N/A Fog Fog
9:36 AM 45.0 °F - 45.0 °F 100% 30.55 in 1.2 mi Calm Calm - N/A   Overcast
9:44 AM 44.1 °F - 44.1 °F 100% 30.56 in 1.0 mi Calm Calm - N/A   Mist
9:47 AM 44.6 °F - 44.6 °F 100% 30.56 in 1.8 mi Calm Calm - N/A   Overcast
9:49 AM 44.6 °F - 44.6 °F 100% 30.56 in 3.0 mi Calm Calm - N/A   Mostly Cloudy
9:51 AM 45.0 °F - 45.0 °F 100% 30.59 in 6.0 mi Calm Calm - N/A   Mostly Cloudy
10:04 AM 46.9 °F - 46.0 °F 97% 30.56 in 10.0 mi Calm Calm - N/A   Scattered Clouds
10:51 AM 54.0 °F - 48.0 °F 80% 30.56 in 10.0 mi NE 3.5 mph - N/A   Clear
11:51 AM 62.1 °F - 44.1 °F 52% 30.55 in 10.0 mi South 12.7 mph 17.3 mph N/A   Clear
12:51 PM 63.0 °F - 44.1 °F 50% 30.54 in 10.0 mi South 10.4 mph 24.2 mph N/A   Clear
1:51 PM 63.0 °F - 42.1 °F 46% 30.51 in 10.0 mi South 16.1 mph 20.7 mph N/A   Clear
2:51 PM 64.0 °F - 41.0 °F 43% 30.50 in 10.0 mi South 12.7 mph - N/A   Clear
3:51 PM 64.9 °F - 43.0 °F 45% 30.48 in 10.0 mi South 13.8 mph - N/A   Clear
4:51 PM 63.0 °F - 43.0 °F 48% 30.48 in 10.0 mi South 12.7 mph 23.0 mph N/A   Clear
5:51 PM 63.0 °F - 43.0 °F 48% 30.46 in 10.0 mi SSE 11.5 mph - N/A   Clear
6:51 PM 57.9 °F - 43.0 °F 58% 30.46 in 10.0 mi South 8.1 mph - N/A   Clear
7:51 PM 55.0 °F - 43.0 °F 64% 30.44 in 10.0 mi SSE 9.2 mph - N/A   Clear
8:51 PM 53.1 °F - 43.0 °F 69% 30.44 in 10.0 mi South 9.2 mph - N/A   Clear
9:51 PM 54.0 °F - 42.1 °F 64% 30.43 in 10.0 mi SSE 13.8 mph - N/A   Clear
10:51 PM 53.1 °F - 42.1 °F 66% 30.41 in 10.0 mi SSE 12.7 mph - N/A   Clear
11:51 PM 51.1 °F - 41.0 °F 68% 30.40 in 10.0 mi South 11.5 mph - N/A   Clear